Tracking 17147 objects as of 5-July-2015
HD Live streaming from Space Station

MOZHAYETS

Track MOZHAYETS now!
10-day predictions
MOZHAYETS is classified as:


NORAD ID: 27560
Int'l Code: 2002-054B
Perigee: 679.8 km
Apogee: 738.6 km
Inclination: 98.1 °
Period: 98.8 minutes
Semi major axis: 7080 km
RCS: 1.03 m2 (large)
Launch date: November 28, 2002
Source: Commonwealth of Independent States (former USSR) (CIS)
Your satellite tracking list
Your tracking list is empty





NASA's NSSDC Master Catalog

Two Line Element Set (TLE):
1 27560U 02054B   15185.91843314  .00000240  00000-0  62595-4 0  9991
2 27560 098.1068 323.5764 0041530 168.1712 192.0475 14.57256302668107

Source of the keplerian elements: AFSPC

N2YO: 319